Miscellaneous Local Product
Issued by NWS North Platte, NE

Home | Current Version | Previous Version | Text Only | Print | Product List | Glossary On
Versions: 1 2 3 4 5 6 7 8 9 10 11 12 13 14 15 16 17 18 19 20 21 22 23 24 25 26 27 28 29 30 31 32 33 34 35 36 37 38 39 40 41 42 43 44 45 46 47 48 49 50
365
AXUS43 KLBF 230010
MISLBF


WESTERN AND NORTH CENTRAL NEBRASKA HOURLY WEATHER ROUNDUP
NATIONAL WEATHER SERVICE NORTH PLATTE NE
700 PM CDT THU JUN 22 2017

NOTE: "FAIR" INDICATES FEW OR NO CLOUDS BELOW 12,000 FEET WITH NO
SIGNIFICANT WEATHER AND/OR OBSTRUCTIONS TO VISIBILITY.

NOTE: STATIONS NOT REPORTING VARIABLES SUCH AS SKY/WEATHER OR
PRESSURE ARE PROVIDED BY RAWS AND APRS NETWORKS AND ARE NOT UNDER
NATIONAL WEATHER SERVICE QUALITY CONTROL.

...OBSERVATIONS IN AND NEAR THE EASTERN PANHANDLE OF NEBRASKA...

CITY           SKY/WX    TMP DP  RH WIND       PRES   REMARKS
PINE RIDGE     SUNNY     77  44  30 NE7       29.92R
GORDON         FAIR      76  44  31 N14       29.92R
CHADRON        SUNNY     78  42  27 NE12G17   29.91S
ALLIANCE       SUNNY     76  49  38 N10       29.92R
SIDNEY         PTSUNNY   78  54  43 E16       29.94R
$$

...OBSERVATIONS IN NORTHERN NEBRASKA AND FAR SOUTHERN SOUTH DAKOTA...

CITY           SKY/WX    TMP DP  RH WIND       PRES   REMARKS
WINNER         FAIR      80  46  30 N12       29.85S
VALENTINE      SUNNY     79  43  27 N14       29.87S
THEDFORD       SUNNY     75  47  36 N14G22    29.88R
AINSWORTH      CLOUDY    71  51  49 NE10      29.88S
O`NEILL        PTSUNNY   73  60  64 N15G21    29.82F
ORD            PTSUNNY   78  59  51 N20G28    29.76S
BROKEN BOW     PTSUNNY   78  59  51 N18G28    29.80R
VALENTINE NWR    N/A     72  50  45 NE9G16      N/A
HALSEY           N/A     77  51  39 N8G16       N/A
BUTTE            N/A     72  53  51 NE10        N/A
CHAMBERS         N/A     77  58  52 CALM        N/A
EWING            N/A     73  63  70 N10G20      N/A
$$

...OBSERVATIONS IN SOUTHWEST NEBRASKA AND FAR NORTHEAST COLORADO...

CITY           SKY/WX    TMP DP  RH WIND       PRES   REMARKS
WRAY           FAIR      81  52  36 NE15      29.89R
IMPERIAL       PTSUNNY   82  55  39 NE17G30   29.85R
OGALLALA       CLOUDY    80  55  41 N14G21    29.88R
NORTH PLATTE   PTSUNNY   79  58  48 N14G23    29.83R
MCCOOK         SUNNY     85  61  44 NE20      29.77R
LEXINGTON      PTSUNNY   81  60  48 NE20G25   29.76R
STAPLETON        N/A     76  58  52 NW3G12      N/A
GOTHENBURG       N/A     81  55  40 N14         N/A
CALLAWAY         N/A     80  61  51 N16         N/A
$$

...OBSERVATIONS IN CENTRAL LINCOLN COUNTY AREA...

CITY           SKY/WX    TMP DP  RH WIND       PRES   REMARKS
N.P. AIRPORT   PTSUNNY   79  58  48 N14G23    29.83R
N.P. DOWNTOWN    N/A     78  59  51 NE12        N/A
N.P. SOUTHEAST   N/A     78  59  51 NE6         N/A
N.P. HILLCREST   N/A     76  58  52 NE17G26     N/A
$$

...SOME OBSERVATIONS FROM AROUND THE REGION...

CITY           SKY/WX    TMP DP  RH WIND       PRES   REMARKS
DENVER         CLOUDY    77  47  34 NW12      29.99R
LIMON          CLOUDY    81  49  32 NE18G28   29.95S
ASPEN          CLOUDY    74  34  23 W7        30.14R
LARAMIE        SUNNY     76  39  26 SE12      30.05S
CASPER         SUNNY     76  38  25 NE13      29.98S
CHEYENNE       SUNNY     74  37  26 E9        30.03S
SCOTTSBLUFF    PTSUNNY   78  51  38 NE13      29.92R
GRAND ISLAND   MOSUNNY   81  63  54 N21G31    29.71R
OMAHA          PTSUNNY   89  68  49 NW8       29.61S HX  93
SIOUX FALLS    CLOUDY    72  60  66 N14       29.78R
PIERRE         SUNNY     78  45  30 NW9       29.82F
RAPID CITY     MOSUNNY   77  34  21 N21       29.92R
BISMARCK       MOSUNNY   74  32  21 W22G36    29.81S
KANSAS CITY    MOSUNNY   84  72  67 S13       29.64F
HILL CITY      SUNNY     95  62  33 NE20      29.67R HX  96
WICHITA        MOSUNNY   88  69  53 SE16      29.61F HX  92
DODGE CITY     CLOUDY    91  63  39 SW10      29.68R HX  92
OKLAHOMA CITY  MOSUNNY   89  66  46 SE12      29.65S HX  91
DALLAS         PTSUNNY   90  72  55 E3        29.63S HX  97
AMARILLO       SUNNY     96  54  24 S20       29.72F HX  94
$$




USA.gov is the U.S. government's official web portal to all federal, state and local government web resources and services.